| time (UTC) | temp F | wind direction | speed MPH | gust MPH | rain 1hr in | rain 24hr in | rain mn in | humidity % | barometer mb |
| 20260903120011 | 74 | 113 | 1.0 | 3.0 | 0.00 | 1.35 | 1.10 | 95 | 1014.0 |
| 20260903115011 | 74 | 116 | 1.0 | 4.0 | 0.00 | 1.35 | 1.10 | 95 | 1014.0 |
| 20260903114011 | 74 | 217 | 1.0 | 3.0 | 0.00 | 1.35 | 1.10 | 95 | 1013.8 |
| 20260903113011 | 74 | 238 | 1.0 | 3.0 | 0.00 | 1.35 | 1.10 | 95 | 1013.7 |
| 20260903112011 | 74 | 185 | 1.0 | 3.0 | 0.00 | 1.35 | 1.10 | 95 | 1013.6 |
| 20260903111011 | 74 | 0 | 0.0 | 2.0 | 0.01 | 1.35 | 1.10 | 95 | 1013.7 |
| 20260903110011 | 74 | 0 | 0.0 | 0.0 | 0.01 | 1.35 | 1.10 | 95 | 1013.1 |
| 20260903105011 | 74 | 0 | 0.0 | 2.0 | 0.01 | 1.35 | 1.10 | 95 | 1013.0 |
| 20260903104011 | 74 | 185 | 1.0 | 2.0 | 0.02 | 1.35 | 1.10 | 95 | 1012.8 |
| 20260903103010 | 74 | 184 | 1.0 | 3.0 | 0.02 | 1.35 | 1.10 | 95 | 1013.1 |
| 20260903102011 | 74 | 195 | 2.0 | 4.0 | 0.03 | 1.35 | 1.10 | 95 | 1013.2 |
| 20260903100011 | 74 | 204 | 2.0 | 5.0 | 0.03 | 1.34 | 1.09 | 95 | 1013.2 |
| 20260903095011 | 74 | 200 | 1.0 | 7.0 | 0.05 | 1.34 | 1.09 | 95 | 1013.1 |
| 20260903094011 | 74 | 151 | 2.0 | 3.0 | 0.06 | 1.33 | 1.08 | 95 | 1013.2 |
| 20260903093011 | 74 | 176 | 1.0 | 7.0 | 0.06 | 1.33 | 1.08 | 95 | 1013.0 |
| 20260903092011 | 74 | 232 | 2.0 | 4.0 | 0.05 | 1.32 | 1.07 | 95 | 1013.2 |
| 20260903091010 | 74 | 259 | 2.0 | 4.0 | 0.06 | 1.32 | 1.07 | 95 | 1013.1 |
| 20260903090011 | 74 | 225 | 2.0 | 6.0 | 0.05 | 1.30 | 1.05 | 95 | 1013.1 |
| 20260903084011 | 74 | 226 | 1.0 | 3.0 | 0.04 | 1.27 | 1.02 | 95 | 1013.0 |
| 20260903083011 | 74 | 183 | 1.0 | 4.0 | 0.05 | 1.27 | 1.02 | 95 | 1012.9 |
| 20260903080011 | 74 | 176 | 3.0 | 7.0 | 0.13 | 1.25 | 1.00 | 95 | 1013.1 |
| 20260903075011 | 74 | 169 | 3.0 | 8.0 | 0.18 | 1.24 | 0.99 | 95 | 1012.9 |
| 20260903074012 | 74 | 178 | 3.0 | 5.0 | 0.22 | 1.23 | 0.98 | 95 | 1012.9 |
| 20260903072011 | 75 | 169 | 4.0 | 8.0 | 0.25 | 1.17 | 0.92 | 94 | 1013.3 |
| 20260903071010 | 75 | 175 | 4.0 | 11.0 | 0.37 | 1.14 | 0.89 | 94 | 1013.4 |
| 20260903070011 | 76 | 181 | 2.0 | 9.0 | 0.69 | 1.12 | 0.87 | 94 | 1013.3 |
| 20260903065010 | 76 | 136 | 1.0 | 6.0 | 0.78 | 1.06 | 0.81 | 95 | 1013.4 |
| 20260903064011 | 76 | 123 | 1.0 | 2.0 | 0.76 | 1.01 | 0.76 | 94 | 1013.4 |
| 20260903063011 | 76 | 122 | 2.0 | 7.0 | 0.73 | 0.98 | 0.73 | 94 | 1013.1 |
| 20260903060011 | 76 | 147 | 2.0 | 5.0 | 0.15 | 0.40 | 0.15 | 94 | 1013.1 |
| 20260903055011 | 76 | 155 | 2.0 | 4.0 | 0.03 | 0.28 | 0.03 | 94 | 1013.1 |
| 20260903054010 | 76 | 156 | 3.0 | 7.0 | 0.00 | 0.25 | 0.00 | 94 | 1013.0 |
| 20260903052010 | 76 | 155 | 2.0 | 5.0 | 0.00 | 0.25 | 0.00 | 94 | 1012.7 |
| 20260903051011 | 76 | 151 | 2.0 | 5.0 | 0.00 | 0.25 | 0.00 | 94 | 1012.8 |
| 20260903045011 | 76 | 160 | 2.0 | 5.0 | 0.00 | 0.25 | 0.25 | 94 | 1012.8 |
| 20260903044011 | 76 | 166 | 2.0 | 4.0 | 0.00 | 0.25 | 0.25 | 94 | 1013.0 |
| 20260903043010 | 76 | 160 | 2.0 | 5.0 | 0.00 | 0.25 | 0.25 | 94 | 1013.0 |
| 20260903042011 | 76 | 154 | 2.0 | 5.0 | 0.00 | 0.25 | 0.25 | 93 | 1013.1 |
| 20260903041010 | 76 | 160 | 2.0 | 7.0 | 0.00 | 0.25 | 0.25 | 93 | 1012.9 |
| 20260903040010 | 76 | 165 | 2.0 | 4.0 | 0.01 | 0.25 | 0.25 | 93 | 1012.8 |
| 20260903035011 | 77 | 145 | 2.0 | 8.0 | 0.02 | 0.25 | 0.25 | 93 | 1012.5 |
| 20260903034010 | 77 | 137 | 2.0 | 8.0 | 0.04 | 0.25 | 0.25 | 92 | 1012.6 |
| 20260903032011 | 77 | 163 | 2.0 | 7.0 | 0.09 | 0.25 | 0.25 | 92 | 1012.8 |
| 20260903031011 | 77 | 117 | 2.0 | 4.0 | 0.13 | 0.25 | 0.25 | 91 | 1012.7 |
| 20260903025010 | 77 | 118 | 2.0 | 6.0 | 0.22 | 0.23 | 0.23 | 91 | 1012.6 |
| 20260903024010 | 77 | 100 | 2.0 | 6.0 | 0.20 | 0.21 | 0.21 | 90 | 1012.5 |
| 20260903023010 | 77 | 97 | 2.0 | 7.0 | 0.18 | 0.19 | 0.19 | 89 | 1012.4 |
| 20260903022011 | 77 | 94 | 2.0 | 7.0 | 0.16 | 0.16 | 0.16 | 89 | 1012.3 |
| 20260903021010 | 78 | 101 | 2.0 | 5.0 | 0.11 | 0.11 | 0.11 | 88 | 1012.0 |
| 20260903014010 | 78 | 83 | 2.0 | 7.0 | 0.01 | 0.01 | 0.01 | 87 | 1011.9 |
| 20260903013011 | 79 | 100 | 2.0 | 7.0 | 0.01 | 0.01 | 0.01 | 86 | 1011.7 |
| 20260903012010 | 79 | 160 | 2.0 | 9.0 | 0.00 | 0.00 | 0.00 | 85 | 1011.7 |
| 20260903011010 | 79 | 119 | 3.0 | 9.0 | 0.00 | 0.00 | 0.00 | 84 | 1011.7 |
| 20260903005010 | 80 | 136 | 2.0 | 7.0 | 0.00 | 0.00 | 0.00 | 81 | 1011.6 |
| 20260903004010 | 80 | 146 | 2.0 | 7.0 | 0.00 | 0.00 | 0.00 | 79 | 1011.5 |
| 20260903003010 | 81 | 150 | 3.0 | 14.0 | 0.00 | 0.00 | 0.00 | 79 | 1011.6 |
| 20260903002011 | 81 | 58 | 3.0 | 18.0 | 0.00 | 0.00 | 0.00 | 78 | 1011.6 |
| 20260903001011 | 82 | 130 | 3.0 | 10.0 | 0.00 | 0.00 | 0.00 | 77 | 1011.6 |
| 20260903000011 | 82 | 78 | 3.0 | 14.0 | 0.00 | 0.00 | 0.00 | 76 | 1011.6 |
| 20260902234010 | 82 | 131 | 3.0 | 13.0 | 0.00 | 0.00 | 0.00 | 75 | 1011.8 |
| 20260902233010 | 83 | 111 | 3.0 | 11.0 | 0.00 | 0.00 | 0.00 | 75 | 1011.8 |
| 20260902232011 | 83 | 122 | 3.0 | 13.0 | 0.00 | 0.00 | 0.00 | 74 | 1011.7 |
| 20260902231010 | 83 | 99 | 4.0 | 13.0 | 0.00 | 0.00 | 0.00 | 73 | 1011.6 |
| 20260902230011 | 84 | 131 | 3.0 | 13.0 | 0.00 | 0.00 | 0.00 | 73 | 1011.5 |
| 20260902225010 | 84 | 101 | 4.0 | 12.0 | 0.00 | 0.00 | 0.00 | 73 | 1011.4 |
| 20260902224010 | 84 | 109 | 3.0 | 10.0 | 0.00 | 0.00 | 0.00 | 71 | 1011.4 |
| 20260902223010 | 85 | 132 | 3.0 | 11.0 | 0.00 | 0.00 | 0.00 | 70 | 1011.4 |
| 20260902222010 | 87 | 123 | 3.0 | 10.0 | 0.00 | 0.00 | 0.00 | 66 | 1011.3 |
| 20260902221010 | 88 | 138 | 4.0 | 12.0 | 0.00 | 0.00 | 0.00 | 66 | 1011.4 |
| 20260902220010 | 87 | 88 | 4.0 | 20.0 | 0.00 | 0.00 | 0.00 | 66 | 1011.3 |
| 20260902215010 | 88 | 144 | 3.0 | 15.0 | 0.00 | 0.00 | 0.00 | 64 | 1011.2 |
| 20260902214010 | 88 | 152 | 3.0 | 11.0 | 0.00 | 0.00 | 0.00 | 66 | 1011.3 |
| 20260902212010 | 88 | 75 | 4.0 | 11.0 | 0.00 | 0.00 | 0.00 | 67 | 1011.2 |
| 20260902211010 | 88 | 89 | 5.0 | 13.0 | 0.00 | 0.00 | 0.00 | 67 | 1011.4 |
| 20260902210010 | 89 | 67 | 5.0 | 17.0 | 0.00 | 0.00 | 0.00 | 65 | 1011.4 |
| 20260902205010 | 90 | 130 | 3.0 | 14.0 | 0.00 | 0.00 | 0.00 | 64 | 1011.4 |
| 20260902204010 | 89 | 88 | 4.0 | 9.0 | 0.00 | 0.00 | 0.00 | 65 | 1011.7 |
| 20260902203010 | 90 | 66 | 4.0 | 14.0 | 0.00 | 0.00 | 0.00 | 64 | 1011.7 |
| 20260902202011 | 89 | 63 | 4.0 | 10.0 | 0.00 | 0.00 | 0.00 | 65 | 1011.7 |
| 20260902201009 | 89 | 73 | 4.0 | 17.0 | 0.00 | 0.00 | 0.00 | 66 | 1011.8 |
| 20260902200010 | 90 | 89 | 4.0 | 16.0 | 0.00 | 0.00 | 0.00 | 65 | 1011.8 |
| 20260902194010 | 89 | 98 | 5.0 | 10.0 | 0.00 | 0.00 | 0.00 | 66 | 1012.1 |
| 20260902193010 | 89 | 69 | 4.0 | 21.0 | 0.00 | 0.00 | 0.00 | 65 | 1012.0 |
| 20260902192009 | 89 | 84 | 3.0 | 12.0 | 0.00 | 0.00 | 0.00 | 67 | 1012.1 |
| 20260902191010 | 88 | 98 | 4.0 | 15.0 | 0.00 | 0.00 | 0.00 | 67 | 1012.2 |
| 20260902190010 | 88 | 61 | 4.0 | 15.0 | 0.00 | 0.00 | 0.00 | 68 | 1012.3 |
| 20260902185010 | 87 | 66 | 4.0 | 16.0 | 0.00 | 0.00 | 0.00 | 69 | 1012.5 |
| 20260902184009 | 88 | 152 | 3.0 | 8.0 | 0.00 | 0.00 | 0.00 | 68 | 1012.5 |
| 20260902183010 | 88 | 102 | 4.0 | 9.0 | 0.00 | 0.00 | 0.00 | 69 | 1012.8 |
| 20260902182009 | 87 | 83 | 4.0 | 17.0 | 0.00 | 0.00 | 0.00 | 68 | 1013.1 |
| 20260902181010 | 88 | 124 | 3.0 | 10.0 | 0.00 | 0.00 | 0.00 | 69 | 1013.2 |
| 20260902174011 | 88 | 82 | 5.0 | 14.0 | 0.00 | 0.00 | 0.00 | 67 | 1013.3 |
| 20260902173010 | 87 | 42 | 5.0 | 15.0 | 0.00 | 0.00 | 0.00 | 68 | 1013.3 |
| 20260902172010 | 87 | 46 | 4.0 | 11.0 | 0.00 | 0.00 | 0.00 | 70 | 1013.2 |
| 20260902171009 | 86 | 50 | 4.0 | 14.0 | 0.00 | 0.00 | 0.00 | 72 | 1013.5 |
| 20260902170010 | 85 | 47 | 3.0 | 11.0 | 0.00 | 0.00 | 0.00 | 72 | 1013.8 |
| 20260902165009 | 85 | 49 | 4.0 | 14.0 | 0.00 | 0.00 | 0.00 | 72 | 1014.0 |
| 20260902164010 | 85 | 48 | 4.0 | 16.0 | 0.00 | 0.00 | 0.00 | 74 | 1014.2 |
| 20260902163009 | 85 | 52 | 5.0 | 14.0 | 0.00 | 0.00 | 0.00 | 76 | 1014.3 |
| 20260902162010 | 84 | 58 | 3.0 | 12.0 | 0.00 | 0.00 | 0.00 | 78 | 1014.8 |
| 20260902161009 | 84 | 40 | 3.0 | 12.0 | 0.00 | 0.00 | 0.00 | 79 | 1014.5 |
| 20260902160010 | 83 | 58 | 4.0 | 15.0 | 0.00 | 0.00 | 0.00 | 80 | 1014.3 |
| 20260902155009 | 83 | 48 | 4.0 | 16.0 | 0.00 | 0.00 | 0.00 | 81 | 1014.3 |
| 20260902153010 | 83 | 46 | 3.0 | 10.0 | 0.00 | 0.00 | 0.00 | 81 | 1014.4 |
| 20260902152010 | 83 | 63 | 3.0 | 12.0 | 0.00 | 0.00 | 0.00 | 84 | 1014.3 |
| 20260902151009 | 81 | 60 | 3.0 | 10.0 | 0.00 | 0.00 | 0.00 | 86 | 1014.4 |
| 20260902150009 | 81 | 57 | 4.0 | 10.0 | 0.00 | 0.00 | 0.00 | 87 | 1014.2 |
| 20260902145010 | 80 | 84 | 3.0 | 11.0 | 0.00 | 0.00 | 0.00 | 88 | 1014.5 |
| 20260902144010 | 80 | 51 | 4.0 | 10.0 | 0.00 | 0.00 | 0.00 | 89 | 1014.5 |
| 20260902142010 | 79 | 55 | 3.0 | 9.0 | 0.00 | 0.00 | 0.00 | 90 | 1014.3 |
| 20260902141010 | 78 | 35 | 2.0 | 6.0 | 0.00 | 0.00 | 0.00 | 90 | 1014.3 |
| 20260902140010 | 78 | 43 | 3.0 | 10.0 | 0.00 | 0.00 | 0.00 | 90 | 1014.3 |
| 20260902135010 | 78 | 53 | 3.0 | 9.0 | 0.00 | 0.00 | 0.00 | 90 | 1014.3 |
| 20260902134009 | 77 | 60 | 2.0 | 8.0 | 0.00 | 0.00 | 0.00 | 90 | 1014.3 |
| 20260902132009 | 77 | 64 | 3.0 | 10.0 | 0.00 | 0.00 | 0.00 | 89 | 1014.1 |
| 20260902131010 | 76 | 56 | 2.0 | 6.0 | 0.00 | 0.00 | 0.00 | 89 | 1014.0 |
| 20260902130009 | 76 | 48 | 1.0 | 7.0 | 0.00 | 0.00 | 0.00 | 88 | 1014.1 |
| 20260902123009 | 76 | 65 | 0.0 | 5.0 | 0.00 | 0.00 | 0.00 | 87 | 1014.1 |
| 20260902122010 | 76 | 59 | 1.0 | 3.0 | 0.00 | 0.00 | 0.00 | 86 | 1014.1 |